| time (UTC) | temp F | wind direction | speed MPH | gust MPH | rain 1hr in | rain 24hr in | rain mn in | humidity % | barometer mb |
| 20260510103055 | 65 | 117 | 0.0 | 0.0 | 0.00 | 1.97 | 0.00 | 95 | 1013.9 |
| 20260510101555 | 66 | 117 | 0.0 | 1.0 | 0.00 | 1.97 | 0.00 | 95 | 1013.7 |
| 20260510100057 | 66 | 117 | 0.0 | 0.0 | 0.00 | 1.97 | 0.00 | 95 | 1013.7 |
| 20260510094552 | 65 | 115 | 0.0 | 0.0 | 0.00 | 1.97 | 0.00 | 95 | 1013.8 |
| 20260510093051 | 65 | 11 | 0.0 | 0.0 | 0.00 | 1.97 | 0.00 | 95 | 1013.8 |
| 20260510091550 | 65 | 11 | 0.0 | 0.0 | 0.00 | 1.97 | 0.00 | 95 | 1013.6 |
| 20260510090050 | 66 | 11 | 0.0 | 0.0 | 0.00 | 1.97 | 0.00 | 95 | 1013.6 |
| 20260510084552 | 66 | 11 | 1.0 | 2.0 | 0.00 | 1.97 | 0.00 | 95 | 1013.6 |
| 20260510083048 | 66 | 11 | 0.0 | 2.0 | 0.00 | 1.97 | 0.00 | 95 | 1013.5 |
| 20260510081546 | 65 | 11 | 1.0 | 2.0 | 0.00 | 1.97 | 0.00 | 94 | 1013.6 |
| 20260510080043 | 66 | 28 | 0.0 | 0.0 | 0.00 | 1.97 | 0.00 | 94 | 1013.2 |
| 20260510074549 | 66 | 28 | 0.0 | 0.0 | 0.00 | 1.97 | 0.00 | 94 | 1013.1 |
| 20260510073046 | 67 | 28 | 0.0 | 0.0 | 0.00 | 1.97 | 0.00 | 94 | 1013.0 |
| 20260510071547 | 67 | 13 | 0.0 | 0.0 | 0.00 | 1.97 | 0.00 | 94 | 1013.0 |
| 20260510070041 | 67 | 34 | 0.0 | 2.0 | 0.00 | 1.97 | 0.00 | 94 | 1012.7 |
| 20260510064540 | 67 | 31 | 1.0 | 4.0 | 0.00 | 1.97 | 0.00 | 93 | 1012.9 |
| 20260510063034 | 68 | 360 | 2.0 | 9.0 | 0.00 | 1.97 | 0.00 | 93 | 1013.0 |
| 20260510061532 | 68 | 333 | 0.0 | 16.0 | 0.00 | 1.97 | 0.00 | 93 | 1012.9 |
| 20260510060034 | 69 | 183 | 0.0 | 9.0 | 0.00 | 1.97 | 0.00 | 92 | 1012.2 |
| 20260510054527 | 69 | 184 | 5.0 | 8.0 | 0.00 | 1.97 | 0.00 | 92 | 1012.2 |
| 20260510053026 | 69 | 206 | 3.0 | 7.0 | 0.00 | 1.97 | 0.00 | 93 | 1012.4 |
| 20260510051536 | 69 | 156 | 4.0 | 8.0 | 0.00 | 1.97 | 0.00 | 93 | 1012.4 |
| 20260510050022 | 68 | 141 | 4.0 | 9.0 | 0.00 | 1.97 | 1.97 | 94 | 1012.4 |
| 20260510044524 | 68 | 165 | 5.0 | 11.0 | 0.00 | 1.97 | 1.97 | 95 | 1012.5 |
| 20260510043024 | 68 | 178 | 5.0 | 10.0 | 0.00 | 1.97 | 1.97 | 95 | 1012.8 |
| 20260510041520 | 68 | 186 | 5.0 | 9.0 | 0.00 | 1.97 | 1.97 | 95 | 1013.3 |
| 20260510040020 | 68 | 180 | 0.0 | 3.0 | 0.00 | 1.97 | 1.97 | 95 | 1013.7 |
| 20260510034519 | 68 | 170 | 2.0 | 5.0 | 0.00 | 1.97 | 1.97 | 95 | 1014.0 |
| 20260510033021 | 68 | 178 | 1.0 | 4.0 | 0.00 | 1.97 | 1.97 | 95 | 1014.4 |
| 20260510031519 | 68 | 22 | 0.0 | 0.0 | 0.00 | 1.97 | 1.97 | 95 | 1014.7 |
| 20260510030019 | 68 | 22 | 0.0 | 0.0 | 0.00 | 1.97 | 1.97 | 95 | 1014.6 |
| 20260510024522 | 68 | 22 | 0.0 | 0.0 | 0.00 | 1.97 | 1.97 | 95 | 1014.6 |
| 20260510023019 | 68 | 137 | 0.0 | 2.0 | 0.00 | 1.97 | 1.97 | 95 | 1014.1 |
| 20260510021517 | 68 | 155 | 0.0 | 0.0 | 0.00 | 1.97 | 1.97 | 95 | 1013.9 |
| 20260510020016 | 68 | 155 | 0.0 | 1.0 | 0.00 | 1.97 | 1.97 | 95 | 1013.6 |
| 20260510014522 | 68 | 158 | 1.0 | 4.0 | 0.00 | 1.97 | 1.97 | 95 | 1013.5 |
| 20260510013017 | 68 | 139 | 1.0 | 6.0 | 0.00 | 1.97 | 1.97 | 95 | 1013.3 |
| 20260510011523 | 68 | 138 | 1.0 | 6.0 | 0.00 | 1.97 | 1.97 | 95 | 1012.9 |
| 20260510010015 | 68 | 132 | 4.0 | 10.0 | 0.00 | 1.97 | 1.97 | 95 | 1012.7 |
| 20260510004513 | 68 | 157 | 3.0 | 10.0 | 0.00 | 1.97 | 1.97 | 94 | 1012.5 |
| 20260510003014 | 68 | 144 | 5.0 | 10.0 | 0.00 | 1.97 | 1.97 | 95 | 1012.6 |
| 20260510001513 | 69 | 142 | 4.0 | 10.0 | 0.00 | 1.97 | 1.97 | 95 | 1012.6 |
| 20260510000013 | 69 | 147 | 5.0 | 9.0 | 0.00 | 1.97 | 1.97 | 94 | 1012.6 |
| 20260509234511 | 69 | 165 | 2.0 | 4.0 | 0.00 | 1.97 | 1.97 | 94 | 1012.7 |
| 20260509233010 | 69 | 151 | 2.0 | 7.0 | 0.01 | 1.97 | 1.97 | 94 | 1012.7 |
| 20260509231513 | 69 | 147 | 2.0 | 6.0 | 0.01 | 1.97 | 1.97 | 94 | 1012.6 |
| 20260509230010 | 69 | 116 | 0.0 | 2.0 | 0.01 | 1.97 | 1.97 | 94 | 1012.7 |
| 20260509224511 | 69 | 91 | 2.0 | 3.0 | 0.01 | 1.97 | 1.97 | 94 | 1012.4 |
| 20260509223011 | 69 | 93 | 0.0 | 7.0 | 0.00 | 1.96 | 1.96 | 94 | 1012.6 |
| 20260509221524 | 68 | 38 | 1.0 | 4.0 | 0.01 | 1.96 | 1.96 | 94 | 1012.7 |
| 20260509220008 | 68 | 102 | 2.0 | 4.0 | 0.03 | 2.02 | 1.96 | 94 | 1012.4 |
| 20260509214507 | 68 | 113 | 1.0 | 4.0 | 0.03 | 2.02 | 1.96 | 94 | 1012.4 |
| 20260509213007 | 68 | 68 | 0.0 | 4.0 | 0.03 | 2.02 | 1.96 | 94 | 1012.5 |
| 20260509211507 | 68 | 61 | 1.0 | 4.0 | 0.02 | 2.00 | 1.95 | 94 | 1012.5 |
| 20260509210006 | 68 | 129 | 2.0 | 7.0 | 0.00 | 2.48 | 1.93 | 94 | 1012.5 |
| 20260509204505 | 68 | 111 | 2.0 | 9.0 | 0.00 | 2.48 | 1.93 | 94 | 1012.1 |
| 20260509203005 | 68 | 130 | 5.0 | 12.0 | 0.00 | 2.48 | 1.93 | 94 | 1011.9 |
| 20260509201505 | 68 | 126 | 5.0 | 12.0 | 0.00 | 2.48 | 1.93 | 95 | 1012.2 |
| 20260509200004 | 67 | 111 | 6.0 | 12.0 | 0.00 | 2.80 | 1.93 | 95 | 1012.6 |
| 20260509194503 | 67 | 101 | 7.0 | 12.0 | 0.03 | 2.80 | 1.93 | 95 | 1012.8 |
| 20260509193003 | 68 | 96 | 8.0 | 12.0 | 0.06 | 2.80 | 1.93 | 96 | 1012.9 |
| 20260509191504 | 67 | 152 | 2.0 | 7.0 | 0.12 | 2.80 | 1.93 | 95 | 1013.9 |
| 20260509190002 | 67 | 161 | 4.0 | 8.0 | 0.15 | 2.79 | 1.92 | 95 | 1013.7 |
| 20260509184503 | 67 | 136 | 3.0 | 7.0 | 0.18 | 2.77 | 1.90 | 95 | 1013.5 |
| 20260509183001 | 67 | 142 | 2.0 | 7.0 | 0.20 | 2.74 | 1.87 | 95 | 1014.4 |
| 20260509181501 | 66 | 116 | 3.0 | 8.0 | 0.19 | 2.68 | 1.81 | 95 | 1014.3 |
| 20260509180101 | 66 | 141 | 8.0 | 12.0 | 0.18 | 2.64 | 1.77 | 95 | 1013.4 |
| 20260509174559 | 67 | 128 | 4.0 | 8.0 | 0.50 | 2.59 | 1.72 | 95 | 1014.1 |
| 20260509173109 | 67 | 74 | 6.0 | 11.0 | 0.96 | 2.54 | 1.68 | 95 | 1013.9 |
| 20260509171617 | 67 | 141 | 8.0 | 16.0 | 0.93 | 2.49 | 1.62 | 95 | 1013.7 |
| 20260509170057 | 67 | 144 | 6.0 | 18.0 | 0.90 | 2.45 | 1.58 | 95 | 1013.4 |
| 20260509164556 | 67 | 156 | 9.0 | 13.0 | 0.60 | 2.06 | 1.20 | 94 | 1014.1 |
| 20260509163058 | 68 | 115 | 2.0 | 11.0 | 0.16 | 1.58 | 0.71 | 94 | 1014.6 |
| 20260509161553 | 67 | 103 | 6.0 | 15.0 | 0.17 | 1.56 | 0.69 | 94 | 1014.2 |
| 20260509160050 | 67 | 109 | 5.0 | 10.0 | 0.27 | 1.55 | 0.68 | 94 | 1013.9 |
| 20260509154549 | 67 | 40 | 4.0 | 9.0 | 0.33 | 1.47 | 0.60 | 94 | 1013.9 |
| 20260509153048 | 67 | 117 | 7.0 | 12.0 | 0.33 | 1.42 | 0.55 | 94 | 1013.9 |
| 20260509151548 | 67 | 112 | 3.0 | 8.0 | 0.36 | 1.37 | 0.50 | 94 | 1013.8 |
| 20260509150048 | 66 | 123 | 4.0 | 7.0 | 0.38 | 1.28 | 0.41 | 94 | 1014.0 |
| 20260509144549 | 66 | 79 | 2.0 | 8.0 | 0.26 | 1.14 | 0.27 | 93 | 1014.1 |
| 20260509143044 | 66 | 67 | 3.0 | 8.0 | 0.21 | 1.10 | 0.22 | 93 | 1013.6 |
| 20260509141548 | 66 | 136 | 1.0 | 5.0 | 0.13 | 1.02 | 0.14 | 93 | 1013.9 |
| 20260509140042 | 66 | 42 | 3.0 | 20.0 | 0.03 | 0.91 | 0.03 | 92 | 1013.7 |
| 20260509134551 | 66 | 28 | 6.0 | 18.0 | 0.01 | 0.89 | 0.01 | 91 | 1013.3 |
| 20260509133037 | 68 | 106 | 7.0 | 19.0 | 0.01 | 0.89 | 0.01 | 88 | 1014.0 |
| 20260509131550 | 76 | 74 | 11.0 | 19.0 | 0.00 | 0.88 | 0.00 | 92 | 1013.5 |
| 20260509130042 | 76 | 153 | 1.0 | 5.0 | 0.00 | 0.88 | 0.00 | 93 | 1012.5 |
| 20260509124531 | 75 | 188 | 2.0 | 9.0 | 0.00 | 0.88 | 0.00 | 93 | 1011.9 |
| 20260509123029 | 74 | 165 | 4.0 | 6.0 | 0.00 | 0.88 | 0.00 | 93 | 1011.5 |
| 20260509121522 | 73 | 199 | 2.0 | 5.0 | 0.00 | 0.88 | 0.00 | 94 | 1011.7 |
| 20260509120016 | 72 | 171 | 3.0 | 5.0 | 0.00 | 0.88 | 0.00 | 94 | 1011.6 |
| 20260509114513 | 72 | 161 | 0.0 | 2.0 | 0.00 | 0.88 | 0.00 | 93 | 1011.7 |
| 20260509113012 | 72 | 161 | 1.0 | 3.0 | 0.00 | 0.88 | 0.00 | 93 | 1011.4 |
| 20260509111511 | 72 | 161 | 0.0 | 0.0 | 0.00 | 0.88 | 0.00 | 92 | 1011.3 |
| 20260509110019 | 72 | 161 | 0.0 | 0.0 | 0.00 | 0.88 | 0.00 | 92 | 1011.0 |